User: anonymous
Location: Fort Wayne
(41.1310°N, 85.1290°W)
Time: 20:01:50
(UTC-04:00)
Language:

Helios 1B - Orbit

View from above orbital plane
View from above orbital plane
View from above satellite
View from above satellite

Ground track
Ground track

The orbit data is extracted from the following two-line orbital elements,

1 25977U 99064A   14263.80164259  .00001110  00000-0  15229-3 0  3718
2 25977 098.1601 342.8579 0000214 160.2021 310.7606 14.80470947795877
Epoch (UTC): 20 September 2014 19:14:21
Eccentricity: 0.0000214
inclination: 98.1601°
perigee height: 627 km
apogee height: 628 km
right ascension of ascending node: 342.8579°
argument of perigee: 160.2021°
revolutions per day: 14.80470947
mean anomaly at epoch: 310.7606°
orbit number at epoch: 79587

The dashed part of the orbit path shows where the satellite is in the earth's shadow,  

DLR